• In Uzbekistan
  • List of Countries
  • For 7 days
  • Water Temperature
  • Satellite Maps
  • Weather Map
  • Weather Widgets
  • user-avatar
    Login

    Hourly Weather Szigethalom

    Today, 19 January, Friday

    Time Temperature Precipitation Wind Pressure Humidity
    00:00 +3°C° 0.6 mm 6 mps 744 mmHg 67%
    01:00 +3°C° 0.6 mm 5 mps 744 mmHg 72%
    02:00 +3°C° 0.1 mm 5 mps 744 mmHg 73%
    03:00 +3°C° 0.1 mm 5 mps 745 mmHg 74%
    04:00 +3°C° 0.1 mm 5 mps 745 mmHg 75%
    05:00 +4°C° 0.1 mm 4 mps 745 mmHg 75%
    06:00 +3°C° 0.1 mm 4 mps 745 mmHg 76%
    07:00 +3°C° 0.1 mm 3 mps 745 mmHg 76%
    08:00 +3°C° 0 mm 3 mps 746 mmHg 75%
    09:00 +5°C° 0 mm 2 mps 746 mmHg 74%
    10:00 +5°C° 0 mm 2 mps 747 mmHg 73%
    11:00 +5°C° 0.4 mm 2 mps 747 mmHg 76%
    12:00 +6°C° 0.4 mm 1 mps 747 mmHg 79%
    13:00 +6°C° 0.4 mm 1 mps 747 mmHg 82%
    14:00 +6°C° 0.1 mm 1 mps 747 mmHg 83%
    15:00 +6°C° 0.1 mm 1 mps 748 mmHg 84%
    16:00 +5°C° 0.1 mm 1 mps 748 mmHg 85%
    17:00 +4°C° 0.1 mm 2 mps 749 mmHg 85%
    18:00 +4°C° 0.1 mm 2 mps 749 mmHg 85%
    19:00 +3°C° 0.1 mm 3 mps 750 mmHg 84%
    20:00 +3°C° 0 mm 3 mps 750 mmHg 81%
    21:00 +3°C° 0 mm 3 mps 750 mmHg 77%
    22:00 +3°C° 0 mm 4 mps 750 mmHg 74%
    23:00 +1°C° 0 mm 4 mps 751 mmHg 74%

    Tomorrow, 20 January, Saturday

    Time Temperature Precipitation Wind Pressure Humidity
    00:00 +1°C° 0 mm 4 mps 751 mmHg 74%
    01:00 0°C° 0 mm 4 mps 751 mmHg 74%
    02:00 0°C° 0 mm 4 mps 751 mmHg 76%
    03:00 -1°C° 0 mm 4 mps 751 mmHg 77%
    04:00 0°C° 0 mm 3 mps 751 mmHg 79%
    05:00 0°C° 0 mm 3 mps 751 mmHg 81%
    06:00 -1°C° 0 mm 3 mps 751 mmHg 82%
    07:00 -1°C° 0 mm 2 mps 751 mmHg 84%
    08:00 +1°C° 0 mm 2 mps 751 mmHg 80%
    09:00 +2°C° 0 mm 2 mps 751 mmHg 76%
    10:00 +2°C° 0 mm 3 mps 751 mmHg 72%
    11:00 +3°C° 0 mm 3 mps 751 mmHg 69%
    12:00 +4°C° 0 mm 3 mps 750 mmHg 66%
    13:00 +4°C° 0 mm 3 mps 750 mmHg 63%
    14:00 +4°C° 0 mm 3 mps 749 mmHg 65%
    15:00 +4°C° 0 mm 3 mps 749 mmHg 67%
    16:00 +4°C° 0 mm 2 mps 749 mmHg 70%
    17:00 +3°C° 0 mm 2 mps 748 mmHg 73%
    18:00 +3°C° 0 mm 2 mps 748 mmHg 76%
    19:00 +2°C° 0 mm 2 mps 748 mmHg 79%
    20:00 +1°C° 0 mm 3 mps 748 mmHg 80%
    21:00 +1°C° 0 mm 3 mps 747 mmHg 81%
    22:00 0°C° 0 mm 3 mps 747 mmHg 83%
    23:00 0°C° 0 mm 3 mps 747 mmHg 82%

    Day after tomorrow, 21 January, Sunday

    Time Temperature Precipitation Wind Pressure Humidity
    00:00 0°C° 0 mm 3 mps 746 mmHg 80%
    01:00 0°C° 0 mm 3 mps 746 mmHg 79%
    02:00 0°C° 0.1 mm 3 mps 745 mmHg 79%
    03:00 0°C° 0.1 mm 3 mps 745 mmHg 78%
    04:00 0°C° 0.1 mm 3 mps 744 mmHg 78%
    05:00 0°C° 0.4 mm 3 mps 744 mmHg 81%
    06:00 0°C° 0.4 mm 3 mps 744 mmHg 84%
    07:00 0°C° 0.4 mm 3 mps 744 mmHg 87%
    08:00 0°C° 0.3 mm 3 mps 745 mmHg 87%
    09:00 +1°C° 0.3 mm 2 mps 745 mmHg 88%
    10:00 +2°C° 0.3 mm 2 mps 746 mmHg 88%
    11:00 +1°C° 0.1 mm 3 mps 746 mmHg 87%
    12:00 +1°C° 0.1 mm 3 mps 747 mmHg 87%
    13:00 0°C° 0.1 mm 4 mps 748 mmHg 86%
    14:00 0°C° 0.2 mm 4 mps 748 mmHg 86%
    15:00 0°C° 0.2 mm 5 mps 749 mmHg 86%
    16:00 0°C° 0.2 mm 5 mps 750 mmHg 86%
    17:00 -1°C° 0 mm 5 mps 751 mmHg 85%
    18:00 -1°C° 0 mm 5 mps 751 mmHg 84%
    19:00 -1°C° 0 mm 5 mps 752 mmHg 83%
    20:00 -1°C° 0 mm 4 mps 753 mmHg 83%
    21:00 -2°C° 0 mm 4 mps 753 mmHg 83%
    22:00 -2°C° 0 mm 4 mps 754 mmHg 83%
    23:00 -2°C° 0 mm 3 mps 754 mmHg 83%

    22 January, Monday

    Time Temperature Precipitation Wind Pressure Humidity
    00:00 -2°C° 0 mm 3 mps 754 mmHg 83%
    01:00 -4°C° 0 mm 3 mps 755 mmHg 84%
    02:00 -4°C° 0 mm 3 mps 755 mmHg 84%
    03:00 -3°C° 0 mm 2 mps 755 mmHg 84%
    04:00 -3°C° 0 mm 2 mps 755 mmHg 84%
    05:00 -4°C° 0 mm 2 mps 756 mmHg 83%
    06:00 -4°C° 0 mm 2 mps 756 mmHg 83%
    07:00 -2°C° 0 mm 1 mps 756 mmHg 82%
    08:00 -1°C° 0 mm 1 mps 757 mmHg 78%
    09:00 0°C° 0 mm 1 mps 757 mmHg 74%
    10:00 +1°C° 0 mm 1 mps 757 mmHg 70%
    11:00 +2°C° 0 mm 1 mps 757 mmHg 67%
    12:00 +2°C° 0 mm 1 mps 757 mmHg 64%
    13:00 +3°C° 0 mm 1 mps 757 mmHg 61%
    14:00 +3°C° 0 mm 1 mps 757 mmHg 63%
    15:00 +1°C° 0 mm 0 mps 758 mmHg 66%
    16:00 +1°C° 0 mm 0 mps 758 mmHg 69%
    17:00 +1°C° 0 mm 1 mps 758 mmHg 70%
    18:00 +1°C° 0 mm 1 mps 758 mmHg 72%
    19:00 0°C° 0 mm 1 mps 759 mmHg 73%
    20:00 0°C° 0 mm 1 mps 759 mmHg 74%
    21:00 -2°C° 0 mm 2 mps 759 mmHg 75%
    22:00 -2°C° 0 mm 2 mps 759 mmHg 76%
    23:00 -2°C° 0 mm 2 mps 759 mmHg 75%

    23 January, Tuesday

    Time Temperature Precipitation Wind Pressure Humidity
    00:00 -1°C° 0 mm 2 mps 759 mmHg 75%
    01:00 -1°C° 0 mm 3 mps 758 mmHg 74%
    02:00 -1°C° 0.2 mm 3 mps 758 mmHg 76%
    03:00 -1°C° 0.2 mm 3 mps 758 mmHg 78%
    04:00 -1°C° 0.2 mm 3 mps 758 mmHg 80%
    05:00 -2°C° 0.4 mm 4 mps 758 mmHg 82%
    06:00 -2°C° 0.4 mm 4 mps 758 mmHg 85%
    07:00 -2°C° 0.4 mm 4 mps 758 mmHg 87%
    08:00 -1°C° 0.1 mm 4 mps 758 mmHg 86%
    09:00 -1°C° 0.1 mm 4 mps 758 mmHg 84%
    10:00 -1°C° 0.1 mm 4 mps 758 mmHg 83%
    11:00 0°C° 0.5 mm 4 mps 757 mmHg 84%
    12:00 +1°C° 0.5 mm 3 mps 757 mmHg 85%
    13:00 +1°C° 0.5 mm 3 mps 757 mmHg 86%
    14:00 +2°C° 0.6 mm 3 mps 756 mmHg 86%
    15:00 +2°C° 0.6 mm 3 mps 756 mmHg 86%
    16:00 +3°C° 0.6 mm 3 mps 756 mmHg 86%
    17:00 +3°C° 0.1 mm 3 mps 756 mmHg 86%
    18:00 +3°C° 0.1 mm 4 mps 756 mmHg 87%
    19:00 +3°C° 0.1 mm 4 mps 756 mmHg 88%
    20:00 +4°C° 0 mm 4 mps 757 mmHg 88%
    21:00 +3°C° 0 mm 5 mps 757 mmHg 88%
    22:00 +3°C° 0 mm 5 mps 757 mmHg 88%
    23:00 +3°C° 0 mm 5 mps 757 mmHg 88%

    24 January, Wednesday

    Time Temperature Precipitation Wind Pressure Humidity
    00:00 +3°C° 0 mm 5 mps 757 mmHg 88%
    01:00 +3°C° 0 mm 5 mps 758 mmHg 88%
    02:00 +3°C° 0 mm 6 mps 758 mmHg 86%
    03:00 +2°C° 0 mm 6 mps 758 mmHg 85%
    04:00 +2°C° 0 mm 6 mps 758 mmHg 83%
    05:00 +1°C° 0 mm 6 mps 759 mmHg 83%
    06:00 +1°C° 0 mm 5 mps 759 mmHg 83%
    07:00 +1°C° 0 mm 5 mps 760 mmHg 83%
    08:00 +2°C° 0 mm 5 mps 760 mmHg 81%
    09:00 +2°C° 0 mm 5 mps 761 mmHg 78%
    10:00 +3°C° 0 mm 5 mps 761 mmHg 76%
    11:00 +5°C° 0 mm 5 mps 761 mmHg 74%
    12:00 +5°C° 0 mm 5 mps 761 mmHg 72%
    13:00 +6°C° 0 mm 5 mps 761 mmHg 70%
    14:00 +5°C° 0 mm 4 mps 761 mmHg 73%
    15:00 +4°C° 0 mm 3 mps 762 mmHg 76%
    16:00 +4°C° 0 mm 3 mps 762 mmHg 79%
    17:00 +4°C° 0 mm 2 mps 762 mmHg 82%
    18:00 +3°C° 0 mm 2 mps 762 mmHg 85%
    19:00 +2°C° 0 mm 2 mps 763 mmHg 88%
    20:00 +3°C° 0 mm 1 mps 763 mmHg 89%
    21:00 +3°C° 0 mm 1 mps 763 mmHg 90%
    22:00 +2°C° 0 mm 1 mps 763 mmHg 91%
    23:00 +2°C° 0 mm 1 mps 763 mmHg 92%
    Show more